This demonstration page uses our WeatherBlox Daily Observations layout. Learn more.

Left ArrowRight Arrow

36.17497, -115.13722

Hourly Observations for March 8, 2015

Temp ( °F °C ) Dew Point ( °F °C ) Humidity (%) Winds ( mph kmh ) Pressure ( in mb ) Visibility ( mi km ) Precip ( " mm )
12:53 am 00:53 Clear 53 11.7 27 -2.8 37 37 WNW 8 13 30.04 1017 10 16 0.00 0.00
1:53 am 01:53 Clear 53 11.7 26 -3.3 35 35 WNW 6 9 30.05 1018 10 16 0.00 0.00
3:53 am 03:53 Clear 52 11.1 27 -2.8 38 38 WNW 6 9 30.04 1017 10 16 0.00 0.00
4:53 am 04:53 Clear 51 10.6 27 -2.8 39 39 W 5 7 30.04 1017 10 16 0.00 0.00
5:53 am 05:53 Clear 50 10 27 -2.8 41 41 W 3 6 30.05 1018 10 16 0.00 0.00
6:53 am 06:53 Clear 51 10.6 24 -4.4 35 35 NW 6 9 30.06 1018 10 16 0.00 0.00
7:53 am 07:53 Sunny 51 10.6 28 -2.2 41 41 NW 5 7 30.08 1019 10 16 0.00 0.00
8:53 am 08:53 Sunny 59 15 23 -5 25 25 Calm 30.09 1019 10 16 0.00 0.00
9:53 am 09:53 Sunny 64 17.8 22 -5.6 20 20 N 6 9 30.09 1019 10 16 0.00 0.00
10:53 am 10:53 Sunny 66 18.9 22 -5.6 19 19 Calm 30.08 1019 10 16 0.00 0.00
11:53 am 11:53 Sunny 68 20 21 -6.1 17 17 S 5 7 30.06 1018 10 16 0.00 0.00
12:53 pm 12:53 Sunny 70 21.1 21 -6.1 16 16 SE 6 9 30.04 1017 10 16 0.00 0.00
1:53 pm 13:53 Sunny 73 22.8 20 -6.7 13 13 Calm 30.00 1016 10 16 0.00 0.00
2:53 pm 14:53 Sunny 74 23.3 20 -6.7 13 13 Calm 29.97 1015 10 16 0.00 0.00
3:53 pm 15:53 Sunny 76 24.4 20 -6.7 12 12 VRB 6 9 29.95 1014 10 16 0.00 0.00
4:53 pm 16:53 Sunny 76 24.4 21 -6.1 13 13 SE 6 9 29.93 1014 10 16 0.00 0.00
5:53 pm 17:53 Sunny 74 23.3 21 -6.1 14 14 E 8 13 29.92 1013 10 16 0.00 0.00
6:53 pm 18:53 Clear 71 21.7 21 -6.1 15 15 E 5 7 29.93 1014 10 16 0.00 0.00
7:53 pm 19:53 Clear 69 20.6 22 -5.6 17 17 Calm 29.93 1014 10 16 0.00 0.00
8:53 pm 20:53 Clear 65 18.3 26 -3.3 23 23 WNW 6 9 29.94 1014 10 16 0.00 0.00
9:53 pm 21:53 Clear 61 16.1 29 -1.7 30 30 NNW 7 11 29.95 1014 10 16 0.00 0.00
10:53 pm 22:53 Clear 59 15 30 -1.1 33 33 NNW 5 7 29.95 1014 10 16 0.00 0.00
11:53 pm 23:53 Clear 59 15 29 -1.7 32 32 WNW 6 9 29.95 1014 10 16 0.00 0.00

Powered by AerisWeather